Regional Weather Roundup
Issued by NWS

Home | Current Version | Previous Version | Graphics & Text | Print | Product List | Glossary On
Versions: 1 2 3 4 5 6 7 8 9 10 11 12 13 14 15 16 17 18 19 20 21 22 23 24 25 26 27 28 29 30 31 32 33 34 35 36 37 38 39 40 41 42 43 44 45 46 47 48 49 50
864
ASUS45 KSLC 260910
RWRUT

UTAH REGIONAL WEATHER ROUNDUP
NATIONAL WEATHER SERVICE SALT LAKE CITY UT
300 AM MDT WED APR 26 2017

UTZ001>011-023>025-261000-

NORTHERN UTAH

CITY           SKY/WX    TMP DP  RH WIND       PRES   REMARKS
BRIGHAM CITY   MOCLDY    48  32  54 CALM      29.89F
HILL AFB       MOCLDY    43  33  68 S10       29.91F
LOGAN          CLOUDY    43  39  86 NW10      29.90F
OGDEN          MOCLDY    41  34  76 S7        29.90F
SALT LAKE CITY MOCLDY    44  36  73 SE9       29.91F
TOOELE VALLEY  PTCLDY    39  34  81 S9        29.93S WCI  33
WENDOVER       CLOUDY    51  24  34 W5        29.91F
HEBER CITY     MOCLDY    32  28  86 CALM      29.94F
WEST JORDAN    MOCLDY    45  42  89 S7        29.93F

$$

UTZ011>015-024>027-261000-

CENTRAL/NORTHEAST UTAH

CITY           SKY/WX    TMP DP  RH WIND       PRES   REMARKS
PROVO AIRPORT  PTCLDY    38  33  82 SE8       29.95F WCI  32
MOAB/CANYONLAN MOCLDY    39  32  76 W3        29.89S
DELTA          PTCLDY    32  28  86 CALM      29.95F
PRICE          PTCLDY    41  26  55 NW10      29.92S
RICHFIELD      CLEAR     28  27  93 CALM      29.99F
ROOSEVELT      CLEAR     34  28  80 W6        29.92S WCI  29
VERNAL         CLOUDY    35  30  82 CALM      29.90S

$$

UTZ013>016-019>022-027-261000-

SOUTHERN UTAH

CITY           SKY/WX    TMP DP  RH WIND       PRES   REMARKS
BRYCE CANYON   PTCLDY    23  17  78 W8        30.00S WCI  14
CEDAR CITY     PTCLDY    32  23  69 CALM      29.96S
MILFORD        PTCLDY    32  24  72 W5        29.96F WCI  27
ST GEORGE      PTSUNNY   50  21  32 S3        29.92S
HANKSVILLE     PTCLDY    41  25  52 CALM      29.94S
KANAB          CLEAR     36  21  55 NE2       30.00S
BLANDING       CLEAR     40  20  46 CALM      29.97S

$$

REGIONAL REPORTS     COLORADO/ARIZONA

CITY           SKY/WX    TMP DP  RH WIND       PRES   REMARKS
CRAIG, CO      CLOUDY    32  26  78 CALM      29.92S
GRAND JUNCTION CLOUDY    38  36  92 CALM      29.90S
RIFLE, CO      MOCLDY    37  34  89 CALM      29.92R
MONTROSE, CO   CLOUDY    38  33  82 CALM      29.94R
CORTEZ, CO     CLEAR     36  28  73 E9        29.90S WCI  29
COLORADO CITY    N/A     32  21  64 CALM      29.99S
PAGE, AZ       CLEAR     51  20  29 W5        29.91S
GRAND CANYON   CLEAR     26  15  63 NE7       29.98F WCI  18
KINGMAN, AZ    CLEAR     45  19  35 SW3       29.91S
FLAGSTAFF, AZ  CLEAR     29  15  56 CALM      29.97S

$$

REGIONAL REPORTS    NEVADA/IDAHO/WYOMING

CITY           SKY/WX    TMP DP  RH WIND       PRES   REMARKS
LAS VEGAS, NV  PTCLDY    62  14  15 SW3       29.86S
ELY, NY        CLOUDY    33  23  66 S8        30.00F WCI  26
ELKO, NV       CLOUDY    45  31  58 SW7       29.94F
POCATELLO, ID  CLOUDY    44  30  57 SW12      29.87F
BURLEY, ID     CLOUDY    44  32  62 SW8       29.87F
FORT BRIDGER,    N/A     33  30  87 SW12      29.95S WCI  25
EVANSTON, WY   CLOUDY    31  28  89 SW12      29.92F WCI  22
ROCK SPRINGS,  CLOUDY    34  31  88 SW13      29.88F WCI  25
KEMMERER, WY     N/A     30  28  93 SW6       29.91F WCI  24

$$




USA.gov is the U.S. government's official web portal to all federal, state and local government web resources and services.